Regional Weather Roundup
Issued by NWS

Home | Current Version | Previous Version | Graphics & Text | Print | Product List | Glossary On
Versions: 1 2 3 4 5 6 7 8 9 10 11 12 13 14 15 16 17 18 19 20 21 22 23 24 25 26 27 28 29 30 31 32 33 34 35 36 37 38 39 40 41 42 43 44 45 46 47 48 49 50
000
ASUS43 KFSD 280102
RWRSD

WEATHER ROUNDUP FOR SOUTH DAKOTA
NATIONAL WEATHER SERVICE SIOUX FALLS SD
700 PM CST FRI FEB 27 2015

NOTE: "FAIR" INDICATES FEW OR NO CLOUDS BELOW 12,000 FEET WITH NO
SIGNIFICANT WEATHER AND/OR OBSTRUCTIONS TO VISIBILITY.


SDZ001>005-009-010-012>017-280200-
NORTHWEST AND NORTH CENTRAL SOUTH DAKOTA

CITY           SKY/WX    TMP DP  RH WIND       PRES   REMARKS
BUFFALO          N/A     20  10  65 S8        29.93R WCI  10
FAITH            N/A     23   4  44 SE13      30.06S WCI  11
MOBRIDGE       CLEAR     15   3  59 SE16      30.18S WCI  -1
$$

SDZ012>016-024>037-041>051-057-063-072>074-280200-
SOUTHWEST AND SOUTH CENTRAL SOUTH DAKOTA

CITY           SKY/WX    TMP DP  RH WIND       PRES   REMARKS
RAPID CTY ARPT MOCLDY    20  11  68 S15       30.01S WCI   6
PIERRE         CLEAR     18  -2  41 SE10      30.21S WCI   6
CUSTER         LGT SNOW  12   7  80 VRB6      29.86S WCI   3
ELLSWORTH AFB  CLOUDY    21  11  67 S15       29.99  WCI   7
PHILIP         CLOUDY    28   5  37 S12       30.11F WCI  18
PINE RIDGE     MOCLDY    20   7  57 S14G25    30.05S WCI   7
WINNER         FAIR      21  -5  31 SE12      30.23S WCI   9
$$

SDZ004>011-016>023-039-040-280200-
NORTHEAST SOUTH DAKOTA

CITY           SKY/WX    TMP DP  RH WIND       PRES   REMARKS
ABERDEEN       CLEAR      3  -3  76 SE8       30.35S WCI -10
WATERTOWN      CLEAR      6  -3  66 S8        30.35F WCI  -7
SISSETON         N/A      6  -2  69 S8        30.39S WCI  -7
$$

SDZ017-020-022-023-036>040-048>070-280200-
SOUTHEAST SOUTH DAKOTA

CITY           SKY/WX    TMP DP  RH WIND       PRES   REMARKS
SIOUX FALLS    CLEAR     11   1  64 SE10      30.42S WCI  -3
HURON          CLEAR     14   1  56 SE9       30.35S WCI   2
MITCHELL       CLEAR     17   0  47 SE10      30.38S WCI   5
YANKTON        CLEAR     16   3  57 SE8       30.43S WCI   5
$$

ABBREVIATIONS USED IN REMARKS
   TC - TEMPERATURE IN CELSIUS
  WCI - WIND CHILL INDEX
   HX - HEAT INDEX
  VSB - VISIBILITY




USA.gov is the U.S. government's official web portal to all federal, state and local government web resources and services.